FW7227 Weather Reports


Display with metric or nautical units.
time (UTC)temp
F
wind
direction
speed
MPH
gust
MPH
rain 1hr
in
rain 24hr
in
rain mn
in
humidity
%
barometer
mb
20260906231605 56 360 3.0 10.0 0.00 0.00 0.00 75 1023.0
20260906231057 56 360 4.0 10.0 0.00 0.00 0.00 75 1023.1
20260906230558 57 360 4.0 10.0 0.00 0.00 0.00 74 1023.1
20260906230105 57 360 4.0 10.0 0.00 0.00 0.00 74 1023.1
20260906225558 57 360 4.0 10.0 0.00 0.00 0.00 74 1023.2
20260906225058 57 360 5.0 9.0 0.00 0.00 0.00 74 1023.2
20260906224601 57 360 3.0 9.0 0.00 0.00 0.00 73 1023.3
20260906224059 58 360 4.0 10.0 0.00 0.00 0.00 73 1023.3
20260906223601 57 360 4.0 10.0 0.00 0.00 0.00 73 1023.3
20260906223101 57 360 4.0 10.0 0.00 0.00 0.00 73 1023.2
20260906222602 57 360 5.0 10.0 0.00 0.00 0.00 74 1023.3
20260906222100 57 360 4.0 10.0 0.00 0.00 0.00 74 1023.4
20260906221607 57 360 4.0 10.0 0.00 0.00 0.00 74 1023.4
20260906221057 57 360 4.0 8.0 0.00 0.00 0.00 74 1023.4
20260906220557 57 360 3.0 8.0 0.00 0.00 0.00 74 1023.4
20260906220110 57 360 3.0 11.0 0.00 0.00 0.00 75 1023.5
20260906215557 57 360 3.0 11.0 0.00 0.00 0.00 75 1023.5
20260906215057 56 360 4.0 11.0 0.00 0.00 0.00 76 1023.5
20260906214614 56 360 4.0 8.0 0.00 0.00 0.00 76 1023.5
20260906214058 56 360 3.0 8.0 0.00 0.00 0.00 76 1023.6
20260906213559 57 360 3.0 6.0 0.00 0.00 0.00 76 1023.7
20260906213106 57 360 1.0 4.0 0.00 0.00 0.00 76 1023.8
20260906212557 57 360 1.0 8.0 0.00 0.00 0.00 76 1023.8
20260906212101 57 360 2.0 8.0 0.00 0.00 0.00 75 1023.9
20260906211607 57 360 3.0 6.0 0.00 0.00 0.00 75 1024.0
20260906211058 57 360 1.0 5.0 0.00 0.00 0.00 74 1024.0
20260906210557 57 360 2.0 5.0 0.00 0.00 0.00 74 1024.0
20260906210107 57 360 2.0 5.0 0.00 0.00 0.00 74 1024.0
20260906205557 58 129 2.0 7.0 0.00 0.00 0.00 73 1024.0
20260906205056 58 131 2.0 8.0 0.00 0.00 0.00 73 1024.1
20260906204613 58 128 3.0 8.0 0.00 0.00 0.00 73 1024.0
20260906204057 58 128 3.0 8.0 0.00 0.00 0.00 73 1023.9
20260906203557 58 153 3.0 7.0 0.00 0.00 0.00 73 1024.0
20260906203101 58 125 3.0 8.0 0.00 0.00 0.00 72 1024.1
20260906202557 58 124 3.0 8.0 0.00 0.00 0.00 73 1024.2
20260906202057 58 121 3.0 7.0 0.00 0.00 0.00 73 1024.3
20260906201606 58 130 2.0 8.0 0.00 0.00 0.00 73 1024.3
20260906201057 58 130 3.0 8.0 0.00 0.00 0.00 74 1024.4
20260906200558 58 131 3.0 8.0 0.00 0.00 0.00 74 1024.4
20260906200105 58 131 2.0 5.0 0.00 0.00 0.00 75 1024.5
20260906195557 58 130 2.0 5.0 0.00 0.00 0.00 75 1024.6
20260906195058 58 130 2.0 7.0 0.00 0.00 0.00 75 1024.6
20260906194604 58 130 2.0 8.0 0.00 0.00 0.00 75 1024.7
20260906194059 58 132 4.0 8.0 0.00 0.00 0.00 75 1024.6
20260906193557 59 143 3.0 5.0 0.00 0.00 0.00 75 1024.6
20260906193105 59 144 2.0 5.0 0.00 0.00 0.00 75 1024.7
20260906192559 59 360 2.0 5.0 0.00 0.00 0.00 75 1024.8
20260906192057 59 360 2.0 6.0 0.00 0.00 0.00 75 1024.7
20260906191613 59 360 2.0 6.0 0.00 0.00 0.00 75 1024.9
20260906191057 59 360 2.0 6.0 0.00 0.00 0.00 75 1024.9
20260906190601 60 360 2.0 5.0 0.00 0.00 0.00 75 1025.0
20260906190108 60 360 1.0 5.0 0.00 0.00 0.00 75 1025.1
20260906185559 60 360 1.0 5.0 0.00 0.00 0.00 75 1025.0
20260906185057 60 360 2.0 4.0 0.00 0.00 0.00 75 1024.9
20260906184606 60 360 2.0 5.0 0.00 0.00 0.00 74 1025.0
20260906184056 60 360 2.0 5.0 0.00 0.00 0.00 74 1025.0
20260906183558 60 360 1.0 5.0 0.00 0.00 0.00 73 1025.0
20260906183100 60 360 2.0 4.0 0.00 0.00 0.00 73 1024.9
20260906182557 60 360 1.0 2.0 0.00 0.00 0.00 72 1025.1
20260906182100 60 360 0.0 3.0 0.00 0.00 0.00 71 1025.1
20260906181603 61 0 0.0 3.0 0.00 0.00 0.00 70 1025.0
20260906181056 62 360 1.0 4.0 0.00 0.00 0.00 69 1025.1
20260906180557 62 360 1.0 4.0 0.00 0.00 0.00 68 1025.0
20260906180115 62 360 2.0 4.0 0.00 0.00 0.00 69 1024.9
20260906175559 62 360 1.0 4.0 0.00 0.00 0.00 68 1024.9
20260906175057 63 360 1.0 4.0 0.00 0.00 0.00 67 1024.9
20260906174602 64 360 2.0 4.0 0.00 0.00 0.00 66 1024.8
20260906174057 64 360 2.0 4.0 0.00 0.00 0.00 65 1024.8
20260906173557 65 360 2.0 4.0 0.00 0.00 0.00 64 1024.8
20260906173105 65 360 2.0 4.0 0.00 0.00 0.00 63 1024.8
20260906172557 65 144 1.0 5.0 0.00 0.00 0.00 63 1024.9
20260906172056 65 146 2.0 5.0 0.00 0.00 0.00 62 1024.9
20260906171606 66 360 3.0 5.0 0.00 0.00 0.00 62 1025.0
20260906171056 66 145 2.0 5.0 0.00 0.00 0.00 63 1025.1
20260906170557 66 144 2.0 6.0 0.00 0.00 0.00 63 1025.1
20260906170106 66 360 3.0 6.0 0.00 0.00 0.00 61 1025.1
20260906165558 66 162 3.0 5.0 0.00 0.00 0.00 60 1025.1
20260906165059 66 360 2.0 4.0 0.00 0.00 0.00 61 1025.1
20260906164603 66 360 2.0 4.0 0.00 0.00 0.00 61 1025.2
20260906164059 66 360 2.0 4.0 0.00 0.00 0.00 61 1025.2
20260906163557 65 209 0.0 3.0 0.00 0.00 0.00 63 1025.1
20260906163123 66 0 0.0 0.0 0.00 0.00 0.00 61 1025.2
20260906162557 65 0 0.0 1.0 0.00 0.00 0.00 58 1025.3
20260906162056 66 0 0.0 3.0 0.00 0.00 0.00 56 1025.3
20260906161612 66 360 0.0 3.0 0.00 0.00 0.00 57 1025.2
20260906161056 67 0 1.0 3.0 0.00 0.00 0.00 56 1025.3
20260906160556 68 245 0.0 3.0 0.00 0.00 0.00 54 1025.4
20260906160108 68 0 0.0 4.0 0.00 0.00 0.00 54 1025.4
20260906155557 68 245 2.0 4.0 0.00 0.00 0.00 53 1025.5
20260906155100 68 245 2.0 4.0 0.00 0.00 0.00 54 1025.6
20260906154603 68 245 1.0 4.0 0.00 0.00 0.00 54 1025.6
20260906154057 68 245 1.0 5.0 0.00 0.00 0.00 54 1025.6
20260906153559 68 0 0.0 5.0 0.00 0.00 0.00 52 1025.7
20260906153121 69 0 2.0 5.0 0.00 0.00 0.00 54 1025.7
20260906152600 69 0 2.0 10.0 0.00 0.00 0.00 54 1025.6
20260906152056 69 220 2.0 10.0 0.00 0.00 0.00 54 1025.6
20260906151611 69 223 5.0 10.0 0.00 0.00 0.00 55 1025.6
20260906151056 68 0 0.0 3.0 0.00 0.00 0.00 53 1025.8
20260906150556 68 0 0.0 3.0 0.00 0.00 0.00 53 1025.7
20260906150109 68 327 0.0 4.0 0.00 0.00 0.00 55 1025.8
20260906145559 68 0 2.0 8.0 0.00 0.00 0.00 54 1025.8
20260906145058 68 0 1.0 8.0 0.00 0.00 0.00 53 1025.8
20260906144600 69 335 2.0 8.0 0.00 0.00 0.00 53 1025.9
20260906144100 68 0 0.0 7.0 0.00 0.00 0.00 53 1025.9
20260906143557 69 0 3.0 9.0 0.00 0.00 0.00 52 1025.9
20260906143104 69 251 2.0 9.0 0.00 0.00 0.00 56 1026.0
20260906142557 69 259 4.0 9.0 0.00 0.00 0.00 52 1025.9
20260906142058 69 242 3.0 8.0 0.00 0.00 0.00 54 1025.9
20260906141607 68 304 3.0 8.0 0.00 0.00 0.00 53 1026.0
20260906141056 69 276 3.0 10.0 0.00 0.00 0.00 53 1025.9
20260906140556 69 281 5.0 10.0 0.00 0.00 0.00 53 1026.0
20260906140108 69 259 3.0 7.0 0.00 0.00 0.00 51 1026.0
20260906135557 68 0 1.0 7.0 0.00 0.00 0.00 53 1026.1
20260906135057 67 307 2.0 7.0 0.00 0.00 0.00 55 1026.1
20260906134600 68 325 3.0 7.0 0.00 0.00 0.00 52 1026.1
20260906134058 68 304 2.0 8.0 0.00 0.00 0.00 53 1026.1
20260906133559 68 232 0.0 9.0 0.00 0.00 0.00 56 1026.3
20260906133124 68 227 4.0 9.0 0.00 0.00 0.00 52 1026.3
20260906132557 68 333 3.0 9.0 0.00 0.00 0.00 53 1026.4
20260906132057 68 293 1.0 8.0 0.00 0.00 0.00 55 1026.4
20260906131617 67 0 2.0 11.0 0.00 0.00 0.00 53 1026.4
20260906131057 68 314 3.0 11.0 0.00 0.00 0.00 53 1026.4
20260906130559 68 311 3.0 11.0 0.00 0.00 0.00 53 1026.5
20260906130113 68 360 3.0 10.0 0.00 0.00 0.00 53 1026.6
20260906125602 67 0 4.0 13.0 0.00 0.09 0.00 56 1026.6
20260906125058 67 250 2.0 13.0 0.00 0.09 0.00 53 1026.7
20260906124600 68 360 3.0 10.0 0.00 0.09 0.00 55 1026.7
20260906124059 67 360 2.0 9.0 0.00 0.09 0.00 55 1026.7
20260906123556 67 360 4.0 11.0 0.00 0.09 0.00 54 1026.8
20260906123057 67 360 0.0 11.0 0.00 0.09 0.00 53 1026.7
20260906122558 68 360 6.0 11.0 0.00 0.09 0.00 51 1026.8
20260906122059 68 360 2.0 10.0 0.00 0.09 0.00 54 1026.8
20260906121603 67 360 5.0 10.0 0.00 0.09 0.00 56 1026.8
20260906121057 67 360 3.0 10.0 0.00 0.09 0.00 55 1026.9
20260906120558 67 360 4.0 10.0 0.00 0.09 0.00 55 1026.7
20260906120106 66 360 4.0 10.0 0.00 0.09 0.00 53 1026.7
20260906115558 67 360 4.0 10.0 0.00 0.09 0.00 55 1026.8
20260906115056 66 360 4.0 9.0 0.00 0.09 0.00 53 1026.8
20260906114606 66 360 3.0 9.0 0.00 0.09 0.00 51 1026.8
20260906114057 67 360 3.0 10.0 0.00 0.09 0.00 52 1027.0
20260906113556 66 360 4.0 10.0 0.00 0.09 0.00 54 1027.0
20260906113104 65 360 3.0 10.0 0.00 0.09 0.00 55 1027.0
20260906112557 66 360 4.0 10.0 0.00 0.09 0.00 52 1027.0
20260906112057 66 360 2.0 13.0 0.00 0.09 0.00 58 1027.0
20260906111603 66 360 6.0 13.0 0.00 0.09 0.00 55 1027.1
20260906111058 67 360 4.0 13.0 0.00 0.09 0.00 52 1027.1
20260906110558 67 360 3.0 12.0 0.00 0.09 0.00 57 1027.1
20260906105558 67 360 3.0 13.0 0.00 0.09 0.00 59 1027.1
20260906105058 67 360 7.0 13.0 0.00 0.09 0.00 56 1027.1
20260906104608 66 360 3.0 10.0 0.00 0.09 0.00 56 1027.1
20260906104057 66 360 4.0 12.0 0.00 0.09 0.00 55 1027.2
20260906103556 67 360 5.0 12.0 0.00 0.09 0.00 56 1027.1
20260906103111 67 360 5.0 14.0 0.00 0.09 0.00 58 1027.2
20260906102557 65 360 6.0 14.0 0.00 0.09 0.00 57 1027.2
20260906102057 65 360 7.0 14.0 0.00 0.09 0.00 56 1027.2
20260906101603 65 360 5.0 13.0 0.00 0.09 0.00 59 1027.1
20260906101059 65 360 6.0 13.0 0.00 0.09 0.00 57 1027.0
20260906100558 65 360 4.0 10.0 0.00 0.09 0.00 58 1027.0
20260906100111 65 360 5.0 10.0 0.00 0.09 0.00 60 1027.0
20260906095601 64 360 3.0 11.0 0.00 0.09 0.00 60 1027.0
20260906095057 64 360 5.0 11.0 0.00 0.09 0.00 60 1027.1
20260906094621 64 360 3.0 11.0 0.00 0.09 0.00 62 1027.3
20260906094056 64 360 3.0 10.0 0.00 0.09 0.00 63 1027.2
20260906093559 63 360 4.0 10.0 0.00 0.09 0.00 63 1027.3
20260906093107 64 360 4.0 10.0 0.00 0.09 0.00 62 1027.4
20260906092559 64 360 5.0 10.0 0.00 0.09 0.00 62 1027.4
20260906092056 64 360 3.0 10.0 0.00 0.09 0.00 64 1027.3
20260906091604 63 360 4.0 10.0 0.00 0.09 0.00 64 1027.3
20260906091102 63 360 4.0 10.0 0.00 0.09 0.00 65 1027.3
20260906090556 63 360 3.0 10.0 0.00 0.09 0.00 65 1027.2
20260906090115 63 360 5.0 10.0 0.00 0.09 0.00 65 1027.2
20260906085559 63 360 2.0 9.0 0.00 0.09 0.00 66 1027.2
20260906085100 63 279 4.0 10.0 0.00 0.09 0.00 67 1027.3
20260906084605 62 360 4.0 10.0 0.00 0.09 0.00 66 1027.3
20260906084056 62 360 4.0 10.0 0.00 0.09 0.00 66 1027.3
20260906083556 62 360 2.0 8.0 0.00 0.09 0.00 68 1027.2
20260906083105 62 360 4.0 9.0 0.00 0.09 0.00 68 1027.2
20260906082556 61 360 4.0 9.0 0.00 0.09 0.00 69 1027.3
20260906082056 60 360 1.0 9.0 0.00 0.09 0.00 68 1027.2
20260906081603 60 360 3.0 9.0 0.00 0.09 0.00 69 1027.2
20260906081058 61 360 3.0 8.0 0.00 0.09 0.00 68 1027.1
20260906080556 60 360 4.0 8.0 0.00 0.09 0.00 71 1027.1
20260906080104 60 360 3.0 6.0 0.00 0.09 0.00 72 1027.1
20260906075556 60 360 2.0 6.0 0.00 0.09 0.00 73 1027.1
20260906075056 60 360 3.0 6.0 0.00 0.09 0.00 73 1027.0
20260906074600 59 360 1.0 8.0 0.00 0.09 0.00 74 1027.0
20260906074056 59 360 3.0 9.0 0.00 0.09 0.00 74 1027.0
20260906073601 58 360 5.0 10.0 0.00 0.09 0.00 75 1027.0
20260906073104 58 360 5.0 10.0 0.00 0.09 0.00 75 1027.1
20260906072557 58 360 3.0 9.0 0.00 0.09 0.00 77 1027.1
20260906072056 57 360 5.0 9.0 0.00 0.09 0.00 77 1027.1
20260906071602 57 360 4.0 10.0 0.00 0.09 0.00 77 1027.1
20260906071056 57 360 4.0 10.0 0.00 0.09 0.00 78 1027.0
20260906070557 56 360 6.0 12.0 0.00 0.09 0.00 78 1026.8
20260906070104 56 360 4.0 12.0 0.00 0.09 0.00 78 1026.8
20260906065600 56 360 6.0 12.0 0.00 0.09 0.00 79 1026.8
20260906065056 56 360 5.0 10.0 0.00 0.09 0.00 79 1026.8
20260906064559 55 360 4.0 10.0 0.00 0.09 0.00 80 1026.8
20260906064058 55 360 4.0 11.0 0.00 0.09 0.00 80 1026.8
20260906063556 55 360 4.0 11.0 0.00 0.09 0.00 80 1026.7
20260906063103 54 360 6.0 11.0 0.00 0.09 0.00 81 1026.7
20260906062556 54 360 6.0 10.0 0.00 0.09 0.00 82 1026.7
20260906062057 54 360 3.0 9.0 0.00 0.09 0.00 83 1026.5
20260906061607 53 360 3.0 9.0 0.00 0.09 0.00 83 1026.4
20260906061056 53 360 3.0 9.0 0.00 0.09 0.00 84 1026.2
20260906060556 53 360 5.0 8.0 0.00 0.09 0.00 84 1026.3
20260906060107 52 360 3.0 6.0 0.00 0.09 0.00 85 1026.3
20260906055556 52 360 3.0 8.0 0.00 0.09 0.00 86 1026.2
20260906055056 52 360 3.0 8.0 0.00 0.09 0.00 87 1026.1
20260906054559 51 360 2.0 8.0 0.00 0.09 0.00 87 1026.2
20260906054058 51 360 3.0 8.0 0.00 0.09 0.00 88 1026.2
20260906053556 51 360 3.0 6.0 0.00 0.09 0.00 88 1026.3
20260906053058 50 360 2.0 6.0 0.00 0.09 0.00 89 1026.1
20260906052559 50 360 1.0 4.0 0.00 0.09 0.00 89 1026.1
20260906052059 50 360 2.0 5.0 0.00 0.09 0.00 89 1025.9
20260906051603 50 360 2.0 5.0 0.00 0.09 0.00 89 1025.8
20260906051058 50 360 3.0 6.0 0.00 0.09 0.00 89 1025.8
20260906050558 50 360 2.0 8.0 0.00 0.09 0.00 89 1025.8
20260906050105 50 360 3.0 8.0 0.00 0.09 0.00 90 1025.7
20260906045558 50 360 3.0 8.0 0.00 0.09 0.00 89 1025.7
20260906045058 50 360 3.0 6.0 0.00 0.09 0.00 90 1025.7
20260906044559 50 360 2.0 6.0 0.00 0.09 0.00 89 1025.7
20260906044058 50 360 2.0 6.0 0.00 0.09 0.00 89 1025.5
20260906043557 50 360 3.0 9.0 0.00 0.09 0.00 89 1025.5
20260906043102 50 360 3.0 9.0 0.00 0.09 0.00 89 1025.5
20260906042557 50 360 3.0 8.0 0.00 0.09 0.00 89 1025.5
20260906042057 50 360 5.0 8.0 0.00 0.09 0.00 89 1025.5
20260906041605 50 360 3.0 8.0 0.00 0.09 0.00 89 1025.4
20260906041058 50 360 3.0 8.0 0.00 0.09 0.00 89 1025.3
20260906040558 50 360 3.0 8.0 0.00 0.09 0.00 89 1025.2
20260906040104 50 360 3.0 8.0 0.00 0.09 0.00 89 1025.3
20260906035558 50 360 3.0 8.0 0.00 0.09 0.00 88 1025.2
20260906035058 51 360 3.0 8.0 0.00 0.09 0.00 88 1025.3
20260906034608 51 360 3.0 9.0 0.00 0.09 0.00 88 1025.4
20260906034057 51 360 4.0 9.0 0.00 0.09 0.00 88 1025.4
20260906033600 51 360 4.0 9.0 0.00 0.09 0.00 88 1025.5
20260906033108 51 360 3.0 9.0 0.00 0.09 0.00 88 1025.6
20260906032558 51 360 2.0 9.0 0.00 0.09 0.00 88 1025.6
20260906032057 51 360 3.0 9.0 0.00 0.09 0.00 88 1025.6
20260906031603 51 360 4.0 11.0 0.00 0.09 0.00 88 1025.5
20260906031058 51 360 5.0 11.0 0.00 0.09 0.00 88 1025.5
20260906030558 51 360 5.0 11.0 0.00 0.09 0.00 88 1025.4
20260906030109 51 360 4.0 11.0 0.00 0.09 0.00 88 1025.3
20260906025558 51 360 4.0 9.0 0.00 0.09 0.00 88 1025.3
20260906025058 51 360 4.0 11.0 0.00 0.09 0.00 88 1025.2
20260906024608 51 360 4.0 11.0 0.00 0.09 0.00 87 1025.2
20260906024057 51 360 3.0 9.0 0.00 0.09 0.00 87 1025.1
20260906023557 51 360 4.0 10.0 0.00 0.09 0.00 87 1025.1
20260906023106 51 360 4.0 10.0 0.00 0.09 0.00 87 1025.1
20260906022557 51 360 5.0 10.0 0.00 0.09 0.00 87 1025.0
20260906022058 52 360 4.0 9.0 0.00 0.09 0.00 87 1025.0
20260906021607 52 360 3.0 9.0 0.00 0.09 0.00 87 1025.1
20260906021059 52 360 4.0 9.0 0.00 0.09 0.00 86 1025.1
20260906020557 52 360 4.0 9.0 0.00 0.09 0.00 86 1025.0
20260906020108 52 360 5.0 9.0 0.00 0.09 0.00 87 1024.9
20260906015557 52 360 4.0 9.0 0.00 0.09 0.00 86 1025.0
20260906015057 52 360 4.0 9.0 0.00 0.09 0.00 86 1024.9
20260906014611 52 360 4.0 9.0 0.00 0.09 0.00 86 1024.9
20260906014059 52 360 4.0 8.0 0.00 0.09 0.00 86 1024.9
20260906013558 52 360 4.0 8.0 0.00 0.09 0.00 86 1024.8
20260906013100 53 360 3.0 8.0 0.00 0.09 0.00 85 1024.8
20260906012557 53 360 4.0 9.0 0.00 0.09 0.00 85 1024.7
20260906012059 53 360 4.0 9.0 0.00 0.09 0.00 85 1024.7
20260906011613 53 360 4.0 10.0 0.00 0.09 0.00 85 1024.5
20260906011058 53 360 4.0 10.0 0.00 0.09 0.00 85 1024.6
20260906010557 53 360 4.0 10.0 0.00 0.09 0.00 84 1024.6
20260906010108 53 360 4.0 10.0 0.00 0.09 0.00 84 1024.5
20260906005558 53 360 3.0 9.0 0.00 0.09 0.00 84 1024.6
20260906005058 53 360 3.0 12.0 0.00 0.09 0.00 84 1024.6
20260906004605 53 360 4.0 12.0 0.00 0.09 0.00 84 1024.5
20260906004058 53 360 3.0 9.0 0.00 0.09 0.00 83 1024.5
20260906003556 53 360 3.0 12.0 0.00 0.09 0.00 83 1024.5
20260906003113 53 360 4.0 12.0 0.00 0.09 0.00 83 1024.4
20260906002557 53 360 4.0 9.0 0.00 0.09 0.00 83 1024.4
20260906002101 53 360 3.0 11.0 0.00 0.09 0.00 83 1024.3
20260906001602 54 360 3.0 11.0 0.00 0.09 0.00 82 1024.3
20260906001101 54 360 4.0 10.0 0.00 0.09 0.00 82 1024.3
20260906000557 54 360 5.0 11.0 0.00 0.09 0.00 82 1024.3
20260906000108 54 360 4.0 12.0 0.00 0.09 0.00 82 1024.2
20260905235557 54 360 4.0 12.0 0.00 0.09 0.00 82 1024.2
20260905235059 54 360 6.0 12.0 0.00 0.09 0.00 82 1024.2
20260905234606 54 360 4.0 11.0 0.00 0.09 0.00 82 1024.2
20260905234058 54 360 5.0 10.0 0.00 0.09 0.00 82 1024.2
20260905233558 54 360 5.0 10.0 0.00 0.09 0.00 81 1024.1
20260905233125 54 360 5.0 11.0 0.00 0.09 0.00 81 1024.1
20260905232558 54 360 6.0 11.0 0.00 0.09 0.00 81 1024.1
20260905232058 54 360 5.0 12.0 0.00 0.09 0.00 81 1024.0